RYR180A EGPH-LEAL

Flight info

Callsign RYR180A
Flight time 2h 48m
Altitude 35000
Route GOSAM P600 FENIK L612 NAVSO DCT AKOMU DCT VAMEB UL612 HON UN859 SOPIL DCT BALAN DCT LMG DCT PIMQO DCT AGN DCT ANETO DCT POSSY DCT XIMPE DCT RIMES N860 VLC
Aircraft B738/M-SDE3FGILRWY/SB1

Departure

Time 2026-05-05 16:54
Airport Edinburgh Airport (EGPH)

Arrival

Time 2026-05-05 19:42
Airport Alicante-Elche Miguel Hernández Airport (LEAL)
Time Latitude Longitude Altitude Speed Heading
2026-05-05 15:49 55.94572 -3.36629 113 ft 0 kts 89°
2026-05-05 16:43 55.94572 -3.36643 112 ft 2 kts 89°
2026-05-05 16:43 55.94571 -3.36678 115 ft 3 kts 89°
2026-05-05 16:43 55.94571 -3.36714 113 ft 3 kts 89°
2026-05-05 16:43 55.94571 -3.36747 114 ft 2 kts 89°
2026-05-05 16:44 55.94571 -3.36752 114 ft 0 kts 89°
2026-05-05 16:47 55.94572 -3.36744 114 ft 1 kts 75°
2026-05-05 16:48 55.94582 -3.36734 112 ft 2 kts 18°
2026-05-05 16:48 55.94607 -3.36734 115 ft 5 kts 359°
2026-05-05 16:48 55.94654 -3.36735 115 ft 8 kts 359°
2026-05-05 16:48 55.94722 -3.36737 115 ft 10 kts 359°
2026-05-05 16:49 55.94783 -3.36768 112 ft 9 kts 339°
2026-05-05 16:49 55.94842 -3.36777 115 ft 8 kts 359°
2026-05-05 16:49 55.94880 -3.36787 115 ft 5 kts 334°
2026-05-05 16:49 55.94912 -3.36820 114 ft 6 kts 329°
2026-05-05 16:50 55.94926 -3.36892 114 ft 9 kts 251°
2026-05-05 16:50 55.94880 -3.37032 115 ft 17 kts 239°
2026-05-05 16:50 55.94806 -3.37251 113 ft 23 kts 239°
2026-05-05 16:50 55.94723 -3.37494 112 ft 22 kts 238°
2026-05-05 16:51 55.94646 -3.37723 112 ft 21 kts 239°
2026-05-05 16:51 55.94572 -3.37941 115 ft 20 kts 239°
2026-05-05 16:51 55.94501 -3.38149 113 ft 19 kts 239°
2026-05-05 16:51 55.94433 -3.38351 115 ft 19 kts 238°
2026-05-05 16:52 55.94366 -3.38545 114 ft 18 kts 238°
2026-05-05 16:52 55.94315 -3.38697 112 ft 11 kts 239°
2026-05-05 16:52 55.94280 -3.38799 114 ft 8 kts 243°
2026-05-05 16:52 55.94300 -3.38880 113 ft 8 kts 326°
2026-05-05 16:53 55.94345 -3.38929 114 ft 7 kts 328°
2026-05-05 16:53 55.94386 -3.38973 111 ft 4 kts 329°
2026-05-05 16:53 55.94408 -3.38984 113 ft 3 kts 17°
2026-05-05 16:53 55.94420 -3.38955 110 ft 3 kts 56°
2026-05-05 16:54 55.94452 -3.38863 113 ft 29 kts 58°
2026-05-05 16:54 55.94685 -3.38174 113 ft 99 kts 59°
2026-05-05 16:54 55.95141 -3.36807 124 ft 154 kts 61°
2026-05-05 16:54 55.95726 -3.35155 845 ft 154 kts 58°
2026-05-05 16:55 55.96464 -3.33834 1760 ft 154 kts 44°
2026-05-05 16:55 55.97236 -3.32531 2607 ft 152 kts 45°
2026-05-05 16:55 55.98005 -3.31244 3434 ft 153 kts 45°
2026-05-05 16:55 55.98851 -3.29844 3831 ft 182 kts 44°
2026-05-05 16:56 55.99909 -3.28343 4110 ft 205 kts 25°
2026-05-05 16:56 56.01361 -3.28019 4570 ft 227 kts 352°
2026-05-05 16:56 56.02834 -3.29406 4964 ft 256 kts 315°
2026-05-05 16:56 56.03594 -3.32294 5802 ft 264 kts 276°
2026-05-05 16:57 56.03290 -3.35424 6972 ft 257 kts 253°
2026-05-05 16:57 56.02698 -3.38444 7809 ft 261 kts 255°
2026-05-05 16:57 56.02165 -3.41590 8503 ft 268 kts 257°
2026-05-05 16:57 56.01663 -3.44770 9449 ft 267 kts 257°
2026-05-05 16:58 56.01178 -3.48012 10205 ft 271 kts 258°
2026-05-05 16:58 56.00697 -3.51344 10637 ft 287 kts 258°
2026-05-05 16:58 56.00184 -3.54951 10812 ft 311 kts 258°
2026-05-05 16:58 55.99634 -3.58809 11167 ft 326 kts 258°
2026-05-05 16:59 55.99063 -3.62799 11724 ft 335 kts 258°
2026-05-05 16:59 55.98491 -3.66783 12439 ft 338 kts 257°
2026-05-05 16:59 55.97902 -3.70871 13184 ft 341 kts 257°
2026-05-05 16:59 55.97086 -3.74848 13903 ft 348 kts 240°
2026-05-05 17:00 55.95369 -3.77946 14543 ft 358 kts 217°
2026-05-05 17:00 55.93113 -3.79917 15203 ft 365 kts 204°
2026-05-05 17:00 55.90710 -3.81467 15806 ft 370 kts 203°
2026-05-05 17:00 55.89091 -3.82479 16201 ft 374 kts 203°
2026-05-05 17:01 55.86624 -3.84013 16848 ft 377 kts 202°
2026-05-05 17:01 55.83327 -3.86082 17723 ft 381 kts 203°
2026-05-05 17:01 55.80816 -3.87676 18356 ft 385 kts 203°
2026-05-05 17:01 55.78286 -3.89293 18892 ft 388 kts 203°
2026-05-05 17:02 55.75738 -3.90927 19469 ft 390 kts 203°
2026-05-05 17:02 55.73177 -3.92571 20038 ft 393 kts 203°
2026-05-05 17:02 55.71469 -3.93668 20371 ft 395 kts 203°
2026-05-05 17:02 55.68870 -3.95335 20888 ft 399 kts 203°
2026-05-05 17:03 55.66254 -3.97012 21408 ft 402 kts 203°
2026-05-05 17:03 55.62757 -3.99247 22115 ft 405 kts 202°
2026-05-05 17:03 55.60097 -4.00946 22625 ft 408 kts 203°
2026-05-05 17:03 55.57417 -4.02655 23124 ft 411 kts 202°
2026-05-05 17:04 55.54718 -4.04372 23598 ft 414 kts 202°
2026-05-05 17:04 55.52914 -4.05485 23868 ft 417 kts 199°
2026-05-05 17:04 55.50023 -4.06221 24245 ft 426 kts 180°
2026-05-05 17:04 55.47090 -4.05302 24682 ft 434 kts 163°
2026-05-05 17:05 55.44369 -4.02937 25118 ft 438 kts 152°
2026-05-05 17:05 55.40859 -3.99394 25656 ft 441 kts 152°
2026-05-05 17:05 55.38184 -3.96721 25992 ft 444 kts 153°
2026-05-05 17:05 55.35477 -3.94058 26340 ft 447 kts 153°
2026-05-05 17:06 55.33673 -3.92303 26583 ft 448 kts 153°
2026-05-05 17:06 55.30938 -3.89662 26949 ft 450 kts 154°
2026-05-05 17:06 55.28189 -3.87021 27297 ft 452 kts 154°
2026-05-05 17:06 55.25420 -3.84365 27629 ft 454 kts 154°
2026-05-05 17:07 55.22644 -3.81705 27960 ft 456 kts 154°
2026-05-05 17:07 55.19832 -3.79088 28267 ft 458 kts 155°
2026-05-05 17:07 55.16977 -3.76599 28597 ft 459 kts 156°
2026-05-05 17:07 55.14100 -3.74166 28925 ft 461 kts 157°
2026-05-05 17:08 55.11202 -3.71735 29237 ft 463 kts 157°
2026-05-05 17:08 55.08334 -3.69323 29515 ft 465 kts 156°
2026-05-05 17:08 55.05414 -3.66854 29815 ft 467 kts 156°
2026-05-05 17:08 55.02498 -3.64378 30195 ft 466 kts 156°
2026-05-05 17:09 54.99584 -3.61921 30571 ft 464 kts 157°
2026-05-05 17:09 54.96677 -3.59494 30917 ft 463 kts 157°
2026-05-05 17:09 54.93774 -3.57082 31218 ft 463 kts 157°
2026-05-05 17:09 54.90872 -3.54681 31574 ft 461 kts 157°
2026-05-05 17:10 54.87977 -3.52291 31916 ft 460 kts 157°
2026-05-05 17:10 54.85086 -3.49906 32220 ft 460 kts 157°
2026-05-05 17:10 54.82237 -3.47557 32516 ft 460 kts 157°
2026-05-05 17:10 54.79353 -3.45171 32838 ft 459 kts 156°
2026-05-05 17:11 54.76500 -3.42693 33160 ft 458 kts 156°
2026-05-05 17:11 54.73662 -3.40176 33458 ft 458 kts 156°
2026-05-05 17:11 54.70821 -3.37677 33752 ft 458 kts 156°
2026-05-05 17:11 54.67978 -3.35219 34079 ft 456 kts 157°
2026-05-05 17:12 54.65142 -3.32805 34399 ft 453 kts 157°
2026-05-05 17:12 54.62306 -3.30420 34603 ft 454 kts 157°
2026-05-05 17:12 54.59496 -3.28075 34758 ft 456 kts 157°
2026-05-05 17:12 54.56637 -3.25698 34964 ft 456 kts 157°
2026-05-05 17:13 54.53783 -3.23327 35211 ft 455 kts 157°
2026-05-05 17:13 54.50928 -3.20959 35434 ft 455 kts 158°
2026-05-05 17:13 54.48080 -3.18598 35689 ft 453 kts 158°
2026-05-05 17:13 54.45242 -3.16249 35892 ft 453 kts 157°
2026-05-05 17:14 54.42406 -3.13904 36081 ft 452 kts 157°
2026-05-05 17:14 54.39570 -3.11564 36246 ft 453 kts 157°
2026-05-05 17:14 54.36721 -3.09216 36392 ft 454 kts 157°
2026-05-05 17:14 54.33908 -3.06900 36568 ft 455 kts 157°
2026-05-05 17:15 54.31061 -3.04560 36780 ft 454 kts 157°
2026-05-05 17:15 54.28209 -3.02220 36945 ft 455 kts 157°
2026-05-05 17:15 54.22480 -2.97529 37017 ft 459 kts 157°
2026-05-05 17:16 54.16740 -2.92844 37016 ft 455 kts 157°
2026-05-05 17:16 54.11005 -2.88585 37025 ft 451 kts 160°
2026-05-05 17:17 54.05240 -2.84491 37026 ft 448 kts 159°
2026-05-05 17:17 53.99513 -2.80342 37031 ft 447 kts 159°
2026-05-05 17:18 53.93789 -2.76188 37023 ft 447 kts 159°
2026-05-05 17:18 53.88059 -2.72050 37035 ft 449 kts 159°
2026-05-05 17:19 53.82341 -2.67936 37026 ft 451 kts 159°
2026-05-05 17:19 53.76553 -2.63783 37026 ft 452 kts 159°
2026-05-05 17:20 53.70744 -2.59629 37032 ft 454 kts 159°
2026-05-05 17:20 53.64918 -2.55472 37028 ft 455 kts 159°
2026-05-05 17:21 53.59081 -2.51321 37020 ft 455 kts 159°
2026-05-05 17:22 53.50376 -2.45153 37016 ft 454 kts 159°
2026-05-05 17:22 53.44566 -2.41051 37012 ft 452 kts 159°
2026-05-05 17:23 53.38777 -2.36980 37023 ft 450 kts 159°
2026-05-05 17:23 53.33012 -2.32934 37023 ft 448 kts 159°
2026-05-05 17:24 53.27301 -2.28936 37020 ft 447 kts 159°
2026-05-05 17:24 53.21568 -2.24937 37016 ft 446 kts 159°
2026-05-05 17:25 53.15840 -2.20953 37017 ft 446 kts 159°
2026-05-05 17:25 53.10111 -2.16982 37014 ft 446 kts 159°
2026-05-05 17:26 53.04408 -2.13042 37017 ft 447 kts 159°
2026-05-05 17:26 52.98650 -2.09073 37004 ft 449 kts 159°
2026-05-05 17:27 52.92874 -2.05101 37013 ft 450 kts 159°
2026-05-05 17:27 52.87087 -2.01134 37009 ft 451 kts 159°
2026-05-05 17:28 52.81321 -1.97192 36998 ft 452 kts 159°
2026-05-05 17:28 52.75506 -1.93228 37002 ft 452 kts 159°
2026-05-05 17:29 52.69687 -1.89273 36996 ft 452 kts 159°
2026-05-05 17:29 52.63880 -1.85337 36993 ft 451 kts 159°
2026-05-05 17:30 52.58079 -1.81417 36991 ft 450 kts 159°
2026-05-05 17:30 52.52332 -1.77544 36993 ft 449 kts 159°
2026-05-05 17:31 52.46558 -1.73664 36994 ft 448 kts 159°
2026-05-05 17:31 52.40796 -1.69801 36994 ft 447 kts 159°
2026-05-05 17:32 52.35038 -1.65990 36991 ft 446 kts 161°
2026-05-05 17:32 52.29165 -1.62815 36993 ft 444 kts 164°
2026-05-05 17:33 52.23299 -1.59858 36991 ft 444 kts 164°
2026-05-05 17:33 52.17406 -1.56849 36991 ft 444 kts 164°
2026-05-05 17:34 52.11518 -1.53806 36987 ft 444 kts 164°
2026-05-05 17:34 52.05620 -1.50753 36986 ft 445 kts 163°
2026-05-05 17:35 51.99755 -1.47726 36965 ft 446 kts 163°
2026-05-05 17:35 51.93841 -1.44684 36980 ft 446 kts 163°
2026-05-05 17:36 51.87930 -1.41651 36964 ft 446 kts 163°
2026-05-05 17:36 51.82016 -1.38625 36968 ft 445 kts 163°
2026-05-05 17:37 51.76108 -1.35611 36967 ft 445 kts 163°
2026-05-05 17:37 51.70252 -1.32633 36961 ft 444 kts 163°
2026-05-05 17:38 51.64488 -1.29123 36952 ft 444 kts 154°
2026-05-05 17:38 51.59067 -1.24364 36947 ft 443 kts 152°
2026-05-05 17:39 51.53669 -1.19567 36931 ft 443 kts 153°
2026-05-05 17:39 51.48262 -1.14855 36937 ft 442 kts 153°
2026-05-05 17:40 51.42842 -1.10194 36945 ft 442 kts 153°
2026-05-05 17:40 51.37427 -1.05562 36931 ft 441 kts 153°
2026-05-05 17:41 51.32005 -1.00939 36930 ft 441 kts 153°
2026-05-05 17:41 51.26622 -0.96358 36943 ft 442 kts 153°
2026-05-05 17:42 51.21196 -0.91753 36941 ft 442 kts 153°
2026-05-05 17:42 51.15762 -0.87153 36942 ft 442 kts 153°
2026-05-05 17:43 51.10320 -0.82559 36933 ft 443 kts 153°
2026-05-05 17:43 51.04871 -0.77971 36932 ft 443 kts 153°
2026-05-05 17:44 50.99419 -0.73392 36939 ft 444 kts 153°
2026-05-05 17:44 50.93991 -0.68847 36930 ft 444 kts 153°
2026-05-05 17:45 50.88525 -0.64281 36940 ft 444 kts 153°
2026-05-05 17:45 50.83054 -0.59724 36929 ft 444 kts 153°
2026-05-05 17:46 50.77586 -0.55181 36941 ft 444 kts 153°
2026-05-05 17:46 50.72112 -0.50645 36933 ft 444 kts 153°
2026-05-05 17:47 50.66644 -0.46126 36937 ft 444 kts 153°
2026-05-05 17:47 50.61210 -0.41648 36916 ft 444 kts 153°
2026-05-05 17:48 50.55741 -0.37151 36926 ft 443 kts 153°
2026-05-05 17:48 50.50272 -0.32667 36922 ft 444 kts 153°
2026-05-05 17:49 50.44796 -0.28189 36928 ft 444 kts 153°
2026-05-05 17:49 50.39318 -0.23721 36920 ft 444 kts 153°
2026-05-05 17:50 50.33875 -0.19293 36930 ft 444 kts 153°
2026-05-05 17:50 50.28389 -0.14842 36924 ft 444 kts 153°
2026-05-05 17:51 50.22904 -0.10402 36920 ft 444 kts 153°
2026-05-05 17:51 50.17413 -0.05968 36930 ft 444 kts 153°
2026-05-05 17:52 50.11918 -0.01544 36919 ft 444 kts 153°
2026-05-05 17:52 50.06179 0.01689 36916 ft 442 kts 166°
2026-05-05 17:53 50.00222 0.03934 36917 ft 440 kts 166°
2026-05-05 17:53 49.94291 0.06196 36914 ft 438 kts 166°
2026-05-05 17:54 49.88392 0.08497 36924 ft 436 kts 166°
2026-05-05 17:54 49.82551 0.10787 36912 ft 435 kts 166°
2026-05-05 17:55 49.76687 0.13079 36897 ft 435 kts 166°
2026-05-05 17:55 49.70830 0.15361 36874 ft 435 kts 166°
2026-05-05 17:56 49.64967 0.17666 36890 ft 435 kts 165°
2026-05-05 17:56 49.59145 0.20021 36893 ft 436 kts 165°
2026-05-05 17:57 49.53272 0.22394 36891 ft 437 kts 165°
2026-05-05 17:57 49.47388 0.24757 36888 ft 438 kts 165°
2026-05-05 17:58 49.41478 0.27122 36892 ft 439 kts 165°
2026-05-05 17:58 49.35555 0.29487 36888 ft 440 kts 165°
2026-05-05 17:59 49.29646 0.31773 36887 ft 441 kts 170°
2026-05-05 17:59 49.26587 0.32086 36897 ft 442 kts 182°
2026-05-05 17:59 49.23540 0.31434 36879 ft 443 kts 190°
2026-05-05 17:59 49.20484 0.30934 36860 ft 442 kts 176°
2026-05-05 18:00 49.17455 0.31573 36889 ft 440 kts 165°
2026-05-05 18:00 49.11560 0.34116 36888 ft 441 kts 163°
2026-05-05 18:01 49.05691 0.36671 36879 ft 442 kts 164°
2026-05-05 18:01 48.99766 0.39171 36870 ft 442 kts 164°
2026-05-05 18:02 48.93829 0.41648 36880 ft 442 kts 164°
2026-05-05 18:02 48.87889 0.44120 36877 ft 443 kts 164°
2026-05-05 18:03 48.81953 0.46585 36879 ft 442 kts 164°
2026-05-05 18:03 48.76057 0.49267 36875 ft 442 kts 159°
2026-05-05 18:04 48.70388 0.52698 36870 ft 441 kts 158°
2026-05-05 18:04 48.64699 0.56174 36878 ft 441 kts 158°
2026-05-05 18:05 48.58996 0.59552 36891 ft 440 kts 158°
2026-05-05 18:05 48.53285 0.62902 36876 ft 440 kts 158°
2026-05-05 18:06 48.47489 0.65637 36879 ft 439 kts 165°
2026-05-05 18:06 48.41568 0.67920 36867 ft 439 kts 165°
2026-05-05 18:07 48.35658 0.70255 36877 ft 439 kts 165°
2026-05-05 18:07 48.29762 0.72641 36870 ft 439 kts 164°
2026-05-05 18:08 48.23858 0.75023 36856 ft 440 kts 165°
2026-05-05 18:08 48.17977 0.77342 36861 ft 440 kts 165°
2026-05-05 18:09 48.12043 0.79665 36863 ft 441 kts 165°
2026-05-05 18:09 48.06106 0.81990 36867 ft 442 kts 165°
2026-05-05 18:10 48.00153 0.84319 36854 ft 442 kts 165°
2026-05-05 18:10 47.94235 0.86630 36846 ft 443 kts 165°
2026-05-05 18:11 47.88259 0.88958 36864 ft 444 kts 165°
2026-05-05 18:11 47.82280 0.91281 36853 ft 445 kts 165°
2026-05-05 18:12 47.76277 0.93605 36846 ft 446 kts 166°
2026-05-05 18:12 47.70266 0.95928 36856 ft 447 kts 166°
2026-05-05 18:13 47.64288 0.98234 36858 ft 447 kts 166°
2026-05-05 18:13 47.58264 1.00552 36844 ft 447 kts 166°
2026-05-05 18:14 47.52233 1.02868 36850 ft 448 kts 166°
2026-05-05 18:14 47.46207 1.05176 36848 ft 448 kts 166°
2026-05-05 18:15 47.40119 1.06546 36851 ft 446 kts 181°
2026-05-05 18:15 47.33923 1.06328 36845 ft 445 kts 182°
2026-05-05 18:16 47.27728 1.06101 36852 ft 445 kts 181°
2026-05-05 18:16 47.21543 1.05937 36848 ft 444 kts 181°
2026-05-05 18:17 47.15367 1.05796 36850 ft 444 kts 181°
2026-05-05 18:17 47.09244 1.05655 36851 ft 443 kts 181°
2026-05-05 18:18 47.03081 1.05512 36859 ft 443 kts 181°
2026-05-05 18:18 46.96927 1.05293 36859 ft 442 kts 182°
2026-05-05 18:19 46.90778 1.05010 36860 ft 442 kts 182°
2026-05-05 18:19 46.84674 1.04736 36852 ft 442 kts 182°
2026-05-05 18:20 46.78532 1.04472 36855 ft 442 kts 182°
2026-05-05 18:20 46.72381 1.04211 36856 ft 442 kts 182°
2026-05-05 18:21 46.66227 1.03951 36859 ft 443 kts 182°
2026-05-05 18:21 46.60065 1.03690 36862 ft 443 kts 182°
2026-05-05 18:22 46.53947 1.03432 36862 ft 443 kts 182°
2026-05-05 18:22 46.47780 1.03234 36870 ft 443 kts 181°
2026-05-05 18:23 46.41610 1.03185 36866 ft 443 kts 181°
2026-05-05 18:23 46.35438 1.03144 36875 ft 443 kts 181°
2026-05-05 18:24 46.29271 1.03085 36881 ft 443 kts 181°
2026-05-05 18:24 46.23138 1.03017 36887 ft 444 kts 181°
2026-05-05 18:25 46.16967 1.02948 36891 ft 444 kts 181°
2026-05-05 18:25 46.10795 1.02879 36909 ft 443 kts 181°
2026-05-05 18:26 46.04643 1.03474 36914 ft 444 kts 174°
2026-05-05 18:26 45.98560 1.04663 36908 ft 444 kts 173°
2026-05-05 18:27 45.92439 1.05850 36911 ft 444 kts 174°
2026-05-05 18:27 45.86317 1.06968 36917 ft 443 kts 174°
2026-05-05 18:28 45.77135 1.08596 36911 ft 443 kts 174°
2026-05-05 18:28 45.71054 1.09670 36908 ft 443 kts 174°
2026-05-05 18:29 45.64934 1.10749 36916 ft 443 kts 174°
2026-05-05 18:29 45.58808 1.11828 36916 ft 444 kts 174°
2026-05-05 18:30 45.52681 1.12904 36918 ft 444 kts 175°
2026-05-05 18:30 45.46553 1.13979 36921 ft 444 kts 175°
2026-05-05 18:31 45.40464 1.15044 36918 ft 444 kts 175°
2026-05-05 18:31 45.34329 1.16115 36907 ft 444 kts 175°
2026-05-05 18:32 45.28194 1.17184 36918 ft 444 kts 175°
2026-05-05 18:32 45.22056 1.18251 36913 ft 444 kts 175°
2026-05-05 18:33 45.15955 1.19062 36907 ft 442 kts 183°
2026-05-05 18:33 45.09911 1.17907 36926 ft 438 kts 192°
2026-05-05 18:34 45.03914 1.16288 36917 ft 439 kts 192°
2026-05-05 18:34 44.97918 1.14707 36908 ft 438 kts 192°
2026-05-05 18:35 44.91917 1.13160 36913 ft 438 kts 192°
2026-05-05 18:35 44.85957 1.11639 36915 ft 438 kts 192°
2026-05-05 18:36 44.79955 1.10112 36916 ft 438 kts 192°
2026-05-05 18:36 44.73959 1.08589 36918 ft 438 kts 192°
2026-05-05 18:37 44.67958 1.07067 36919 ft 438 kts 192°
2026-05-05 18:37 44.61987 1.05556 36923 ft 439 kts 192°
2026-05-05 18:38 44.55982 1.04040 36924 ft 439 kts 192°
2026-05-05 18:38 44.49975 1.02526 36921 ft 439 kts 192°
2026-05-05 18:39 44.43966 1.01015 36925 ft 439 kts 192°
2026-05-05 18:39 44.37957 0.99507 36921 ft 439 kts 192°
2026-05-05 18:40 44.31992 0.98013 36930 ft 438 kts 192°
2026-05-05 18:40 44.25990 0.96513 36929 ft 438 kts 192°
2026-05-05 18:41 44.19989 0.95017 36930 ft 438 kts 192°
2026-05-05 18:41 44.13992 0.93524 36937 ft 438 kts 192°
2026-05-05 18:42 44.08035 0.92044 36938 ft 437 kts 192°
2026-05-05 18:42 44.02042 0.90559 36926 ft 437 kts 193°
2026-05-05 18:43 43.96058 0.89078 36938 ft 437 kts 193°
2026-05-05 18:43 43.90074 0.87600 36952 ft 437 kts 193°
2026-05-05 18:44 43.84103 0.86068 36944 ft 436 kts 193°
2026-05-05 18:44 43.78184 0.84468 36943 ft 436 kts 194°
2026-05-05 18:45 43.72230 0.82860 36950 ft 436 kts 194°
2026-05-05 18:45 43.66281 0.81267 36958 ft 435 kts 194°
2026-05-05 18:46 43.60337 0.79685 36960 ft 435 kts 194°
2026-05-05 18:46 43.54392 0.78106 36968 ft 435 kts 194°
2026-05-05 18:47 43.48490 0.76542 36975 ft 435 kts 194°
2026-05-05 18:47 43.42548 0.74970 36962 ft 435 kts 194°
2026-05-05 18:48 43.36603 0.73401 36973 ft 435 kts 194°
2026-05-05 18:48 43.30659 0.71834 36982 ft 435 kts 194°
2026-05-05 18:49 43.24755 0.70282 36976 ft 435 kts 194°
2026-05-05 18:49 43.18808 0.68721 36973 ft 435 kts 194°
2026-05-05 18:50 43.12869 0.67166 36983 ft 435 kts 194°
2026-05-05 18:50 43.06931 0.65613 36983 ft 434 kts 194°
2026-05-05 18:51 43.01033 0.64074 36951 ft 435 kts 194°
2026-05-05 18:51 42.95100 0.62530 36972 ft 434 kts 195°
2026-05-05 18:52 42.89181 0.60992 36973 ft 432 kts 194°
2026-05-05 18:52 42.83295 0.59464 36985 ft 430 kts 194°
2026-05-05 18:53 42.77453 0.57951 36968 ft 431 kts 195°
2026-05-05 18:53 42.71568 0.56430 36974 ft 431 kts 195°
2026-05-05 18:54 42.65951 0.53831 36966 ft 425 kts 208°
2026-05-05 18:54 42.60618 0.50343 36941 ft 426 kts 209°
2026-05-05 18:55 42.55266 0.46870 36957 ft 427 kts 208°
2026-05-05 18:55 42.49931 0.43450 36952 ft 427 kts 208°
2026-05-05 18:56 42.44544 0.40016 36918 ft 428 kts 208°
2026-05-05 18:56 42.39150 0.36587 36920 ft 429 kts 208°
2026-05-05 18:57 42.33754 0.33161 36925 ft 428 kts 208°
2026-05-05 18:57 42.28402 0.29768 36912 ft 428 kts 208°
2026-05-05 18:58 42.23017 0.26361 36915 ft 427 kts 208°
2026-05-05 18:58 42.17637 0.22964 36903 ft 426 kts 208°
2026-05-05 18:59 42.12270 0.19580 36905 ft 425 kts 208°
2026-05-05 18:59 42.06903 0.16377 36904 ft 427 kts 202°
2026-05-05 19:00 42.01041 0.14831 36925 ft 433 kts 191°
2026-05-05 19:00 41.95056 0.13997 36912 ft 432 kts 191°
2026-05-05 19:01 41.89084 0.13150 36910 ft 431 kts 191°
2026-05-05 19:01 41.83122 0.12273 36913 ft 431 kts 191°
2026-05-05 19:02 41.77206 0.11391 36892 ft 431 kts 192°
2026-05-05 19:02 41.71255 0.10503 36915 ft 430 kts 192°
2026-05-05 19:03 41.65300 0.09616 36921 ft 431 kts 192°
2026-05-05 19:03 41.59338 0.08731 36920 ft 431 kts 192°
2026-05-05 19:04 41.53414 0.07853 36915 ft 431 kts 192°
2026-05-05 19:04 41.47440 0.06970 36918 ft 432 kts 192°
2026-05-05 19:05 41.41466 0.06088 36926 ft 432 kts 192°
2026-05-05 19:05 41.35483 0.05207 36929 ft 433 kts 192°
2026-05-05 19:06 41.29546 0.04334 36924 ft 432 kts 192°
2026-05-05 19:06 41.23575 0.03457 36931 ft 431 kts 192°
2026-05-05 19:07 41.18616 0.02730 36929 ft 431 kts 192°
2026-05-05 19:07 41.11659 0.01713 36921 ft 430 kts 193°
2026-05-05 19:08 41.05728 0.00847 36933 ft 428 kts 193°
2026-05-05 19:08 40.99853 -0.00009 36943 ft 427 kts 193°
2026-05-05 19:09 40.93962 -0.00868 36955 ft 425 kts 193°
2026-05-05 19:09 40.88085 -0.01722 36943 ft 424 kts 193°
2026-05-05 19:10 40.82224 -0.02574 36954 ft 424 kts 193°
2026-05-05 19:10 40.76403 -0.03418 36944 ft 424 kts 193°
2026-05-05 19:11 40.70539 -0.04267 36957 ft 424 kts 193°
2026-05-05 19:11 40.64671 -0.05115 36954 ft 425 kts 193°
2026-05-05 19:12 40.58786 -0.05964 36949 ft 426 kts 193°
2026-05-05 19:12 40.53059 -0.07365 36958 ft 417 kts 203°
2026-05-05 19:13 40.47518 -0.09629 36941 ft 417 kts 204°
2026-05-05 19:13 40.41964 -0.11871 36962 ft 418 kts 203°
2026-05-05 19:14 40.36384 -0.14085 36962 ft 419 kts 203°
2026-05-05 19:14 40.30801 -0.16286 36967 ft 419 kts 203°
2026-05-05 19:15 40.25248 -0.18474 36905 ft 419 kts 203°
2026-05-05 19:15 40.19675 -0.20664 36949 ft 418 kts 203°
2026-05-05 19:16 40.14107 -0.22850 36950 ft 418 kts 203°
2026-05-05 19:16 40.11310 -0.23948 36552 ft 423 kts 203°
2026-05-05 19:16 40.08497 -0.25050 36050 ft 421 kts 203°
2026-05-05 19:17 40.05697 -0.26145 35446 ft 419 kts 203°
2026-05-05 19:17 40.02902 -0.27239 34749 ft 420 kts 204°
2026-05-05 19:17 40.00141 -0.28318 34136 ft 419 kts 204°
2026-05-05 19:17 39.97362 -0.29400 33677 ft 414 kts 204°
2026-05-05 19:18 39.94624 -0.30465 33233 ft 408 kts 204°
2026-05-05 19:18 39.91918 -0.31519 32780 ft 403 kts 204°
2026-05-05 19:18 39.89244 -0.32559 32293 ft 399 kts 204°
2026-05-05 19:18 39.86601 -0.33586 31870 ft 393 kts 204°
2026-05-05 19:19 39.83997 -0.34595 31427 ft 389 kts 204°
2026-05-05 19:19 39.81444 -0.35586 30987 ft 386 kts 204°
2026-05-05 19:19 39.78886 -0.36579 30522 ft 382 kts 205°
2026-05-05 19:19 39.76350 -0.37562 30114 ft 379 kts 205°
2026-05-05 19:20 39.73834 -0.38539 29650 ft 375 kts 205°
2026-05-05 19:20 39.71344 -0.39504 29182 ft 371 kts 205°
2026-05-05 19:20 39.68886 -0.40455 28746 ft 367 kts 205°
2026-05-05 19:20 39.66446 -0.41399 28304 ft 364 kts 205°
2026-05-05 19:21 39.64842 -0.42019 28012 ft 362 kts 205°
2026-05-05 19:21 39.62447 -0.42945 27595 ft 358 kts 205°
2026-05-05 19:21 39.60070 -0.43864 27157 ft 355 kts 205°
2026-05-05 19:21 39.56956 -0.45067 26570 ft 350 kts 205°
2026-05-05 19:22 39.54634 -0.45963 26158 ft 347 kts 205°
2026-05-05 19:22 39.52331 -0.46851 25742 ft 344 kts 205°
2026-05-05 19:22 39.50043 -0.47732 25339 ft 342 kts 205°
2026-05-05 19:22 39.48536 -0.48311 25069 ft 341 kts 205°
2026-05-05 19:23 39.46262 -0.49154 24667 ft 339 kts 204°
2026-05-05 19:23 39.43995 -0.49966 24266 ft 338 kts 204°
2026-05-05 19:23 39.41731 -0.50769 23866 ft 336 kts 204°
2026-05-05 19:23 39.39473 -0.51570 23449 ft 336 kts 204°
2026-05-05 19:24 39.36499 -0.52626 22835 ft 334 kts 204°
2026-05-05 19:24 39.34268 -0.53419 22385 ft 332 kts 203°
2026-05-05 19:24 39.32770 -0.53952 22126 ft 329 kts 203°
2026-05-05 19:24 39.30593 -0.54727 21748 ft 329 kts 203°
2026-05-05 19:25 39.28388 -0.55514 21356 ft 329 kts 203°
2026-05-05 19:25 39.26172 -0.56306 20956 ft 334 kts 203°
2026-05-05 19:25 39.23912 -0.57117 20559 ft 340 kts 203°
2026-05-05 19:25 39.21633 -0.57930 20133 ft 339 kts 202°
2026-05-05 19:26 39.19363 -0.58734 19715 ft 337 kts 202°
2026-05-05 19:26 39.17111 -0.59532 19300 ft 335 kts 202°
2026-05-05 19:26 39.14867 -0.60328 18862 ft 334 kts 202°
2026-05-05 19:26 39.12637 -0.61118 18445 ft 332 kts 202°
2026-05-05 19:27 39.10411 -0.61907 17985 ft 331 kts 202°
2026-05-05 19:27 39.08222 -0.62683 17545 ft 330 kts 201°
2026-05-05 19:27 39.06014 -0.63466 17118 ft 328 kts 202°
2026-05-05 19:27 39.03818 -0.64243 16696 ft 327 kts 202°
2026-05-05 19:28 39.01632 -0.65017 16289 ft 325 kts 202°
2026-05-05 19:28 38.99452 -0.65788 15875 ft 324 kts 201°
2026-05-05 19:28 38.97284 -0.66554 15475 ft 322 kts 201°
2026-05-05 19:28 38.95127 -0.67316 15052 ft 321 kts 202°
2026-05-05 19:29 38.92980 -0.68074 14656 ft 319 kts 201°
2026-05-05 19:29 38.90838 -0.68830 14257 ft 318 kts 201°
2026-05-05 19:29 38.88729 -0.69574 13830 ft 318 kts 201°
2026-05-05 19:29 38.86602 -0.70324 13403 ft 316 kts 201°
2026-05-05 19:30 38.84484 -0.71070 13009 ft 315 kts 201°
2026-05-05 19:30 38.82374 -0.71813 12600 ft 314 kts 200°
2026-05-05 19:30 38.80269 -0.72553 12212 ft 313 kts 200°
2026-05-05 19:30 38.78176 -0.73288 11825 ft 311 kts 200°
2026-05-05 19:31 38.76096 -0.74019 11453 ft 309 kts 200°
2026-05-05 19:31 38.74024 -0.74747 11086 ft 308 kts 199°
2026-05-05 19:31 38.71959 -0.75472 10722 ft 307 kts 199°
2026-05-05 19:31 38.69926 -0.76185 10361 ft 307 kts 199°
2026-05-05 19:32 38.67891 -0.76897 10216 ft 298 kts 199°
2026-05-05 19:32 38.65916 -0.77587 10059 ft 290 kts 199°
2026-05-05 19:32 38.63993 -0.78260 9892 ft 283 kts 199°
2026-05-05 19:32 38.62095 -0.78925 9574 ft 282 kts 199°
2026-05-05 19:33 38.60222 -0.79581 9440 ft 275 kts 199°
2026-05-05 19:33 38.58401 -0.80229 9227 ft 269 kts 202°
2026-05-05 19:33 38.56748 -0.81360 8752 ft 269 kts 218°
2026-05-05 19:33 38.55206 -0.82728 8423 ft 269 kts 218°
2026-05-05 19:34 38.53693 -0.84054 8148 ft 266 kts 217°
2026-05-05 19:34 38.52175 -0.85361 7846 ft 260 kts 217°
2026-05-05 19:34 38.50684 -0.86628 7567 ft 254 kts 216°
2026-05-05 19:35 38.47790 -0.89058 7153 ft 244 kts 216°
2026-05-05 19:35 38.46377 -0.90237 6954 ft 241 kts 216°
2026-05-05 19:35 38.44970 -0.91391 6748 ft 239 kts 212°
2026-05-05 19:35 38.43371 -0.91942 6529 ft 243 kts 181°
2026-05-05 19:36 38.41729 -0.91464 6361 ft 242 kts 163°
2026-05-05 19:36 38.40168 -0.90717 6187 ft 237 kts 161°
2026-05-05 19:36 38.38651 -0.89957 5926 ft 232 kts 161°
2026-05-05 19:36 38.37183 -0.89212 5663 ft 228 kts 161°
2026-05-05 19:37 38.35725 -0.88474 5395 ft 224 kts 161°
2026-05-05 19:37 38.34286 -0.87749 5088 ft 221 kts 161°
2026-05-05 19:37 38.32917 -0.86879 4783 ft 222 kts 141°
2026-05-05 19:37 38.32163 -0.85192 4459 ft 223 kts 99°
2026-05-05 19:38 38.32045 -0.83252 4173 ft 218 kts 99°
2026-05-05 19:38 38.31805 -0.81373 3884 ft 213 kts 102°
2026-05-05 19:38 38.31536 -0.79534 3581 ft 209 kts 103°
2026-05-05 19:38 38.31278 -0.77738 3330 ft 204 kts 102°
2026-05-05 19:39 38.31029 -0.75975 3055 ft 201 kts 102°
2026-05-05 19:39 38.30785 -0.74235 2789 ft 198 kts 102°
2026-05-05 19:39 38.30550 -0.72554 2531 ft 194 kts 102°
2026-05-05 19:39 38.30316 -0.70884 2282 ft 189 kts 102°
2026-05-05 19:40 38.30087 -0.69250 2029 ft 186 kts 102°
2026-05-05 19:40 38.29863 -0.67649 1795 ft 182 kts 101°
2026-05-05 19:40 38.29645 -0.66094 1553 ft 174 kts 101°
2026-05-05 19:40 38.29443 -0.64640 1342 ft 160 kts 101°
2026-05-05 19:41 38.29253 -0.63279 1111 ft 154 kts 102°
2026-05-05 19:41 38.29069 -0.61948 908 ft 152 kts 101°
2026-05-05 19:41 38.28892 -0.60618 708 ft 152 kts 101°
2026-05-05 19:41 38.28706 -0.59305 499 ft 152 kts 102°
2026-05-05 19:42 38.28519 -0.57980 276 ft 152 kts 101°
2026-05-05 19:42 38.28337 -0.56674 118 ft 145 kts 101°
2026-05-05 19:42 38.28194 -0.55657 97 ft 77 kts 100°
2026-05-05 19:42 38.28132 -0.55209 71 ft 37 kts 99°
2026-05-05 19:43 38.28122 -0.55022 68 ft 16 kts 84°
2026-05-05 19:43 38.28148 -0.54875 67 ft 19 kts 69°
2026-05-05 19:43 38.28180 -0.54765 65 ft 11 kts 69°
2026-05-05 19:43 38.28229 -0.54716 62 ft 11 kts 329°
2026-05-05 19:44 38.28254 -0.54803 62 ft 11 kts 280°
2026-05-05 19:44 38.28268 -0.54907 66 ft 13 kts 280°
2026-05-05 19:44 38.28285 -0.55030 69 ft 14 kts 280°
2026-05-05 19:44 38.28302 -0.55151 75 ft 12 kts 279°
2026-05-05 19:45 38.28329 -0.55211 85 ft 8 kts 340°
2026-05-05 19:45 38.28374 -0.55179 82 ft 9 kts 57°
2026-05-05 19:45 38.28425 -0.55157 82 ft 6 kts 327°
2026-05-05 19:45 38.28440 -0.55195 85 ft 5 kts 282°
2026-05-05 19:46 38.28446 -0.55235 84 ft 5 kts 280°
2026-05-05 19:46 38.28452 -0.55275 86 ft 5 kts 285°
2026-05-05 19:46 38.28466 -0.55291 88 ft 3 kts 347°
2026-05-05 19:46 38.28492 -0.55286 87 ft 4 kts
2026-05-05 19:47 38.28521 -0.55280 88 ft 3 kts
2026-05-05 19:47 38.28528 -0.55278 88 ft 0 kts